Weather in Mihaylovka

Ukraine / Cherkassi District     49°05′09″N   31°03′42″E
temp.,
°C
wind,
m/s
gust,
m/s
humid.,
%
clouds,
%
prec.,
mm/h
press.,
hPa
HPBL,
m
21 october, thu
thu2100:00+10ssw716659 0.0 1019448
03:00+10ssw71572100 0.0 1018406
06:00+8ssw7158284 0.0 1017389
09:00+10ssw81673100 0.0 1016515
12:00+14ssw91550100 0.0 1014756
15:00+17ssw91542100 0.0 10111032
18:00+16ssw91741100 0.0 1009828
21:00+14ssw81748100 0.0 1009593
22 october, fri
fri2200:00+12ssw613566 0.0 1009319
03:00+11sw51163100 0.0 1010252
06:00+11sw41159100 0.0 1010237
09:00+12wsw386498 0.0 1012255
12:00+17w59455 0.0 10131303
15:00+18w684156 0.0 10131934
18:00+14w34439 0.0 101352
21:00+12sw2249100 0.0 101421
23 october, sat
sat2300:00+11wsw48495 0.0 1014133
03:00+9w31063100 0.0 1015217
06:00+8w3874100 0.0 1016167
09:00+9w397170 0.0 1017322
12:00+11wnw611475 0.0 10181428
15:00+13wnw912335 0.0 10181968
18:00+9wnw49380 0.0 1019226
21:00+7w38475 0.0 1021183
24 october, sun
sun2400:00+5w38685 0.0 1023227
03:00+4wsw410715 0.0 1023257
06:00+3w511745 0.0 1023333
09:00+4w51173100 0.0 1024348
12:00+8nw8953100 0.1 10251607
15:00+5nw61064100 0.1 10261442
18:00+6nw81248100 0.0 10271671
21:00+4nnw6126380 0.0 10281073
25 october, mon
mon2500:00+2nnw5126951 0.0 1030532
03:00+2nnw51070100 0.0 1031458
06:00+1nnw497316 0.0 1032367
09:00+1n48705 0.0 1034413
12:00+5nne45480 0.0 1035917
15:00+7nne33380 0.0 10341103
18:00+5ne33465 0.0 103436
21:00+3e33556 0.0 103546